DW5071 Weather Reports


Display with metric or nautical units.
time (UTC)temp
F
wind
direction
speed
MPH
gust
MPH
rain 1hr
in
rain 24hr
in
rain mn
in
humidity
%
barometer
mb
20180722085515 86 0.0 0.0 0.00 0.00 0.00 43 1013.3
20180722085016 86 0.0 0.0 0.00 0.00 0.00 42 1013.4
20180722084516 86 0.0 0.0 0.00 0.00 0.00 42 1013.4
20180722084016 86 0.0 0.0 0.00 0.00 0.00 42 1013.4
20180722083515 86 0.0 0.0 0.00 0.00 0.00 42 1013.4
20180722083015 86 0.0 1.0 0.00 0.00 0.00 42 1013.4
20180722082515 86 113 0.0 1.0 0.00 0.00 0.00 42 1013.3
20180722082051 86 0.0 0.0 0.00 0.00 0.00 42 1013.3
20180722081516 86 0.0 0.0 0.00 0.00 0.00 42 1013.3
20180722081015 86 0.0 0.0 0.00 0.00 0.00 42 1013.3
20180722080516 86 0.0 0.0 0.00 0.00 0.00 41 1013.3
20180722080016 86 0.0 0.0 0.00 0.00 0.00 41 1013.4
20180722075515 86 0.0 0.0 0.00 0.00 0.00 41 1013.3
20180722075015 86 0.0 0.0 0.00 0.00 0.00 41 1013.3
20180722074515 86 0.0 0.0 0.00 0.00 0.00 41 1013.4
20180722074015 86 0.0 0.0 0.00 0.00 0.00 40 1013.4
20180722073516 86 0.0 1.0 0.00 0.00 0.00 40 1013.3
20180722073016 87 110 0.0 1.0 0.00 0.00 0.00 40 1013.4
20180722072516 87 0.0 0.0 0.00 0.00 0.00 40 1013.4
20180722072015 87 0.0 0.0 0.00 0.00 0.00 40 1013.3
20180722071516 87 0.0 0.0 0.00 0.00 0.00 40 1013.3
20180722071016 87 0.0 0.0 0.00 0.00 0.00 40 1013.3
20180722070515 87 0.0 0.0 0.00 0.00 0.00 40 1013.2
20180722070017 87 0.0 0.0 0.00 0.00 0.00 40 1013.3
20180722065516 88 0.0 0.0 0.00 0.00 0.00 41 1013.3
20180722065016 88 0.0 0.0 0.00 0.00 0.00 41 1013.3
20180722064516 88 0.0 0.0 0.00 0.00 0.00 39 1013.3
20180722064016 88 0.0 0.0 0.00 0.00 0.00 38 1013.2
20180722063516 89 0.0 0.0 0.00 0.00 0.00 39 1013.2
20180722063018 89 0.0 0.0 0.00 0.00 0.00 38 1013.3
20180722062516 89 0.0 0.0 0.00 0.00 0.00 37 1013.3
20180722062016 89 0.0 0.0 0.00 0.00 0.00 37 1013.3
20180722061518 90 0.0 0.0 0.00 0.00 0.00 37 1013.3
20180722061016 90 0.0 0.0 0.00 0.00 0.00 36 1013.2
20180722060517 90 0.0 0.0 0.00 0.00 0.00 35 1013.2
20180722060016 90 0.0 0.0 0.00 0.00 0.00 35 1013.1
20180722055516 91 0.0 1.0 0.00 0.00 0.00 35 1013.1
20180722055017 91 110 0.0 1.0 0.00 0.00 0.00 35 1013.0
20180722054516 91 110 0.0 1.0 0.00 0.00 0.00 35 1013.0
20180722054016 91 113 0.0 1.0 0.00 0.00 0.00 35 1013.0
20180722053517 91 107 0.0 2.0 0.00 0.00 0.00 36 1013.1
20180722053016 91 108 0.0 2.0 0.00 0.00 0.00 36 1013.1
20180722052517 91 0.0 1.0 0.00 0.00 0.00 36 1013.1
20180722052018 91 101 0.0 1.0 0.00 0.00 0.00 36 1013.2
20180722051523 92 0.0 1.0 0.00 0.00 0.00 36 1013.2
20180722051016 92 91 0.0 1.0 0.00 0.00 0.00 36 1013.1
20180722050516 92 92 0.0 1.0 0.00 0.00 0.00 36 1013.0
20180722050017 92 89 0.0 1.0 0.00 0.00 0.00 35 1013.0
20180722045516 92 99 0.0 1.0 0.00 0.00 0.00 35 1013.0
20180722045017 92 145 0.0 1.0 0.00 0.00 0.00 35 1012.9
20180722044516 92 147 0.0 1.0 0.00 0.00 0.00 35 1013.0
20180722044016 93 156 0.0 1.0 0.00 0.00 0.00 35 1013.0
20180722043516 93 122 0.0 1.0 0.00 0.00 0.00 36 1012.9
20180722043016 93 122 0.0 1.0 0.00 0.00 0.00 36 1012.8
20180722042516 93 122 0.0 1.0 0.00 0.00 0.00 36 1012.8
20180722042016 93 122 0.0 1.0 0.00 0.00 0.00 36 1012.7
20180722041516 93 117 0.0 2.0 0.00 0.00 0.00 37 1012.6
20180722041016 93 138 0.0 2.0 0.00 0.00 0.00 37 1012.5
20180722040516 93 104 0.0 2.0 0.00 0.00 0.00 37 1012.4
20180722040016 94 94 0.0 2.0 0.00 0.00 0.00 37 1012.3
20180722035516 94 95 0.0 3.0 0.00 0.00 0.00 36 1012.2
20180722035016 94 112 0.0 3.0 0.00 0.00 0.00 36 1012.1
20180722034516 94 94 0.0 2.0 0.00 0.00 0.00 36 1012.0
20180722034017 94 83 0.0 3.0 0.00 0.00 0.00 36 1011.9
20180722033516 94 63 0.0 3.0 0.00 0.00 0.00 36 1011.7
20180722033016 94 97 0.0 3.0 0.00 0.00 0.00 36 1011.7
20180722032517 95 128 0.0 5.0 0.00 0.00 0.00 36 1011.6
20180722032016 95 78 0.0 5.0 0.00 0.00 0.00 36 1011.5
20180722031516 95 190 0.0 2.0 0.00 0.00 0.00 35 1011.4
20180722031016 95 182 0.0 3.0 0.00 0.00 0.00 35 1011.3
20180722030516 95 141 0.0 3.0 0.00 0.00 0.00 34 1011.3
20180722030016 96 78 0.0 2.0 0.00 0.00 0.00 34 1011.3
20180722025516 96 136 0.0 4.0 0.00 0.00 0.00 33 1011.2
20180722025016 96 52 0.0 5.0 0.00 0.00 0.00 33 1011.2
20180722024516 96 84 0.0 5.0 0.00 0.00 0.00 33 1011.1
20180722024016 96 82 0.0 3.0 0.00 0.00 0.00 33 1011.0
20180722023517 96 95 0.0 2.0 0.00 0.00 0.00 33 1011.1
20180722023016 97 69 0.0 2.0 0.00 0.00 0.00 32 1011.1
20180722022516 97 98 0.0 2.0 0.00 0.00 0.00 32 1010.9
20180722022016 97 80 0.0 4.0 0.00 0.00 0.00 32 1011.0
20180722021516 97 97 1.0 5.0 0.00 0.00 0.00 32 1011.0
20180722021022 98 90 0.0 5.0 0.00 0.00 0.00 31 1010.9
20180722020516 98 139 0.0 3.0 0.00 0.00 0.00 31 1010.8
20180722020016 98 98 0.0 4.0 0.00 0.00 0.00 31 1011.0
20180722015516 99 88 0.0 4.0 0.00 0.00 0.00 30 1011.0
20180722015016 100 91 1.0 3.0 0.00 0.00 0.00 29 1011.0
20180722014517 100 98 0.0 5.0 0.00 0.00 0.00 28 1011.0
20180722014016 101 89 0.0 5.0 0.00 0.00 0.00 28 1011.0
20180722013516 101 111 0.0 5.0 0.00 0.00 0.00 28 1011.0
20180722013016 102 112 0.0 4.0 0.00 0.00 0.00 28 1010.9
20180722012516 102 101 0.0 4.0 0.00 0.00 0.00 28 1010.8
20180722012016 102 52 0.0 3.0 0.00 0.00 0.00 29 1010.9
20180722011516 102 93 0.0 3.0 0.00 0.00 0.00 30 1010.8
20180722011016 102 121 0.0 4.0 0.00 0.00 0.00 29 1010.6
20180722010516 102 113 1.0 4.0 0.00 0.00 0.00 29 1010.6
20180722010016 102 82 0.0 4.0 0.00 0.00 0.00 29 1010.6
20180722005517 102 95 0.0 5.0 0.00 0.00 0.00 29 1010.5
20180722005016 102 103 1.0 5.0 0.00 0.00 0.00 30 1010.6
20180722004516 103 98 0.0 3.0 0.00 0.00 0.00 29 1010.7
20180722004016 103 101 0.0 3.0 0.00 0.00 0.00 28 1010.8
20180722003517 103 66 0.0 3.0 0.00 0.00 0.00 29 1010.8
20180722003016 103 52 0.0 3.0 0.00 0.00 0.00 29 1010.8
20180722002516 103 73 0.0 5.0 0.00 0.00 0.00 30 1010.8
20180722002019 103 95 1.0 5.0 0.00 0.00 0.00 29 1010.8
20180722001516 103 101 1.0 4.0 0.00 0.00 0.00 29 1010.8
20180722001016 103 84 0.0 4.0 0.00 0.00 0.00 29 1010.8
20180722000516 103 88 1.0 5.0 0.00 0.00 0.00 29 1010.8
20180722000016 103 63 1.0 7.0 0.00 0.00 0.00 30 1010.9
20180721235519 103 14 1.0 7.0 0.00 0.00 0.00 29 1010.9
20180721235016 103 18 1.0 5.0 0.00 0.00 0.00 29 1010.9
20180721234516 102 114 1.0 4.0 0.00 0.00 0.00 29 1011.0
20180721234017 103 93 1.0 4.0 0.00 0.00 0.00 28 1011.2
20180721233516 103 92 1.0 7.0 0.00 0.00 0.00 28 1011.2
20180721233016 103 43 1.0 7.0 0.00 0.00 0.00 28 1011.3
20180721232516 103 83 0.0 8.0 0.00 0.00 0.00 30 1011.3
20180721232016 103 101 1.0 8.0 0.00 0.00 0.00 29 1011.3
20180721231516 103 114 1.0 4.0 0.00 0.00 0.00 30 1011.3
20180721231017 103 98 0.0 3.0 0.00 0.00 0.00 29 1011.4
20180721230523 103 94 0.0 3.0 0.00 0.00 0.00 29 1011.4
20180721230016 103 97 0.0 4.0 0.00 0.00 0.00 30 1011.6
20180721225516 102 96 0.0 4.0 0.00 0.00 0.00 31 1011.6
20180721225017 102 103 1.0 4.0 0.00 0.00 0.00 30 1011.5
20180721224517 102 119 0.0 3.0 0.00 0.00 0.00 31 1011.5
20180721224016 102 81 0.0 3.0 0.00 0.00 0.00 31 1011.7
20180721223516 101 115 0.0 4.0 0.00 0.00 0.00 31 1011.7
20180721223017 101 99 1.0 4.0 0.00 0.00 0.00 32 1011.8
20180721222516 101 92 1.0 4.0 0.00 0.00 0.00 31 1011.7
20180721222016 101 99 1.0 4.0 0.00 0.00 0.00 32 1011.9
20180721221517 101 109 1.0 5.0 0.00 0.00 0.00 32 1011.9
20180721221019 101 86 1.0 5.0 0.00 0.00 0.00 31 1011.9
20180721220516 100 84 1.0 4.0 0.00 0.00 0.00 33 1012.0
20180721220016 100 122 1.0 4.0 0.00 0.00 0.00 33 1012.0
20180721215516 100 106 1.0 5.0 0.00 0.00 0.00 33 1012.2
20180721215016 100 95 1.0 5.0 0.00 0.00 0.00 34 1012.2
20180721214517 100 96 0.0 5.0 0.00 0.00 0.00 35 1012.3
20180721214016 100 83 0.0 5.0 0.00 0.00 0.00 34 1012.3
20180721213516 100 93 1.0 6.0 0.00 0.00 0.00 34 1012.4
20180721213016 100 87 1.0 6.0 0.00 0.00 0.00 34 1012.5
20180721212516 100 54 1.0 4.0 0.00 0.00 0.00 34 1012.6
20180721212017 100 91 0.0 5.0 0.00 0.00 0.00 35 1012.7
20180721211516 99 89 0.0 5.0 0.00 0.00 0.00 36 1012.8
20180721211016 99 126 0.0 4.0 0.00 0.00 0.00 35 1012.8
20180721210516 99 88 1.0 3.0 0.00 0.00 0.00 35 1012.9
20180721210018 99 151 0.0 4.0 0.00 0.00 0.00 35 1012.8
20180721205515 98 56 0.0 4.0 0.00 0.00 0.00 37 1012.9
20180721205016 99 86 0.0 3.0 0.00 0.00 0.00 37 1013.0
20180721204516 98 131 0.0 3.0 0.00 0.00 0.00 37 1013.2
20180721204016 98 91 0.0 4.0 0.00 0.00 0.00 37 1013.2
20180721203516 98 76 1.0 4.0 0.00 0.00 0.00 37 1013.2
20180721203016 97 126 0.0 4.0 0.00 0.00 0.00 38 1013.4
20180721202516 97 87 1.0 4.0 0.00 0.00 0.00 38 1013.5
20180721202016 97 59 0.0 4.0 0.00 0.00 0.00 38 1013.5
20180721201516 96 110 0.0 3.0 0.00 0.00 0.00 39 1013.5
20180721201016 96 158 0.0 6.0 0.00 0.00 0.00 38 1013.7
20180721200516 96 86 1.0 6.0 0.00 0.00 0.00 39 1013.7
20180721200025 97 93 1.0 3.0 0.00 0.00 0.00 38 1013.9
20180721195515 96 85 0.0 3.0 0.00 0.00 0.00 38 1013.9
20180721195016 96 114 0.0 3.0 0.00 0.00 0.00 40 1014.0
20180721194516 96 125 0.0 4.0 0.00 0.00 0.00 39 1014.0
20180721194016 96 86 1.0 5.0 0.00 0.00 0.00 38 1014.1
20180721193516 96 137 1.0 5.0 0.00 0.00 0.00 39 1014.2
20180721193016 96 122 0.0 3.0 0.00 0.00 0.00 40 1014.2
20180721192516 96 100 0.0 4.0 0.00 0.00 0.00 39 1014.2
20180721192016 95 97 0.0 4.0 0.00 0.00 0.00 40 1014.3
20180721191516 95 84 1.0 3.0 0.00 0.00 0.00 39 1014.3
20180721191016 95 77 0.0 2.0 0.00 0.00 0.00 40 1014.4
20180721190516 94 96 0.0 6.0 0.00 0.00 0.00 42 1014.5
20180721190016 94 108 1.0 6.0 0.00 0.00 0.00 41 1014.4
20180721185516 94 73 1.0 6.0 0.00 0.00 0.00 42 1014.6
20180721185016 94 62 1.0 6.0 0.00 0.00 0.00 42 1014.6
20180721184516 94 258 0.0 6.0 0.00 0.00 0.00 42 1014.7
20180721184017 93 93 1.0 4.0 0.00 0.00 0.00 42 1014.8
20180721183516 93 162 1.0 5.0 0.00 0.00 0.00 43 1014.7
20180721183015 92 101 1.0 5.0 0.00 0.00 0.00 44 1014.8
20180721182515 93 122 0.0 3.0 0.00 0.00 0.00 43 1014.9
20180721182016 92 237 0.0 4.0 0.00 0.00 0.00 44 1015.0
20180721181516 92 81 0.0 5.0 0.00 0.00 0.00 44 1014.9
20180721181016 92 62 0.0 5.0 0.00 0.00 0.00 44 1015.0
20180721180516 92 78 0.0 3.0 0.00 0.00 0.00 45 1015.2
20180721180016 92 171 0.0 2.0 0.00 0.00 0.00 45 1015.2
20180721175516 92 52 0.0 2.0 0.00 0.00 0.00 45 1015.1
20180721175016 92 202 0.0 3.0 0.00 0.00 0.00 46 1015.2
20180721174516 91 235 0.0 4.0 0.00 0.00 0.00 46 1015.3
20180721174016 91 90 0.0 4.0 0.00 0.00 0.00 48 1015.4
20180721173519 91 68 0.0 2.0 0.00 0.00 0.00 47 1015.4
20180721173016 91 150 0.0 3.0 0.00 0.00 0.00 49 1015.5
20180721172516 90 206 0.0 4.0 0.00 0.00 0.00 47 1015.5
20180721172016 89 228 0.0 4.0 0.00 0.00 0.00 49 1015.4
20180721171517 89 94 1.0 5.0 0.00 0.00 0.00 48 1015.4
20180721171016 89 103 1.0 5.0 0.00 0.00 0.00 49 1015.4
20180721170517 89 85 0.0 6.0 0.00 0.00 0.00 50 1015.3
20180721170016 89 218 1.0 6.0 0.00 0.00 0.00 51 1015.4
20180721165523 89 201 0.0 4.0 0.00 0.00 0.00 52 1015.4
20180721165016 88 76 1.0 4.0 0.00 0.00 0.00 52 1015.3
20180721164516 88 78 1.0 5.0 0.00 0.00 0.00 52 1015.3
20180721164016 88 10 1.0 5.0 0.00 0.00 0.00 52 1015.2
20180721163516 88 116 0.0 4.0 0.00 0.00 0.00 54 1015.2
20180721163015 87 36 1.0 5.0 0.00 0.00 0.00 55 1015.4
20180721162515 87 61 0.0 5.0 0.00 0.00 0.00 56 1015.5
20180721162016 86 116 1.0 6.0 0.00 0.00 0.00 57 1015.5
20180721161516 86 94 1.0 6.0 0.00 0.00 0.00 59 1015.6
20180721161015 86 82 0.0 3.0 0.00 0.00 0.00 60 1015.6
20180721160516 85 90 0.0 3.0 0.00 0.00 0.00 62 1015.6
20180721160017 85 173 0.0 2.0 0.00 0.00 0.00 63 1015.5
20180721155516 84 95 0.0 2.0 0.00 0.00 0.00 65 1015.5
20180721155016 83 165 0.0 1.0 0.00 0.00 0.00 67 1015.5
20180721154516 82 250 0.0 2.0 0.00 0.00 0.00 68 1015.5
20180721153515 82 91 0.0 2.0 0.00 0.00 0.00 71 1015.3
20180721153016 81 53 0.0 1.0 0.00 0.00 0.00 74 1015.3
20180721152516 80 24 0.0 1.0 0.00 0.00 0.00 73 1015.4
20180721152015 80 354 0.0 3.0 0.00 0.00 0.00 74 1015.4
20180721151516 80 352 0.0 3.0 0.00 0.00 0.00 73 1015.3
20180721151016 81 342 0.0 2.0 0.00 0.00 0.00 72 1015.2
20180721150516 81 338 0.0 2.0 0.00 0.00 0.00 71 1015.1
20180721150016 81 264 0.0 1.0 0.00 0.00 0.00 70 1014.9
20180721145515 81 265 0.0 1.0 0.00 0.00 0.00 68 1014.9
20180721145016 81 267 0.0 1.0 0.00 0.00 0.00 68 1014.8
20180721144516 80 0.0 1.0 0.00 0.00 0.00 69 1014.5
20180721144016 80 266 0.0 2.0 0.00 0.00 0.00 71 1014.3
20180721143516 80 267 0.0 2.0 0.00 0.00 0.00 71 1014.3
20180721143015 79 267 0.0 2.0 0.00 0.00 0.00 71 1014.5
20180721142515 80 0.0 1.0 0.00 0.00 0.00 70 1014.3
20180721142015 80 267 0.0 1.0 0.00 0.00 0.00 69 1014.1
20180721141516 80 267 0.0 3.0 0.00 0.00 0.00 70 1014.2
20180721141017 80 256 0.0 5.0 0.00 0.00 0.00 69 1014.1
20180721140516 80 255 1.0 5.0 0.00 0.00 0.00 68 1014.0
20180721140016 80 0.0 1.0 0.00 0.00 0.00 69 1013.5
20180721135515 80 240 0.0 4.0 0.00 0.00 0.00 69 1013.4
20180721135023 80 251 0.0 4.0 0.00 0.00 0.00 69 1013.8
20180721134516 81 262 1.0 4.0 0.00 0.00 0.00 69 1013.9
20180721134016 80 259 1.0 4.0 0.00 0.00 0.00 69 1013.7
20180721133516 80 262 1.0 4.0 0.00 0.00 0.00 69 1013.8
20180721133016 80 96 0.0 4.0 0.00 0.00 0.00 69 1013.3
20180721132516 80 92 0.0 4.0 0.00 0.00 0.00 69 1013.0
20180721132015 80 73 0.0 5.0 0.00 0.00 0.00 69 1013.1
20180721131517 80 85 0.0 5.0 0.00 0.00 0.00 68 1013.1
20180721131016 80 45 1.0 6.0 0.00 0.00 0.00 67 1013.1
20180721130516 81 90 1.0 6.0 0.00 0.00 0.00 67 1013.0
20180721130016 81 89 1.0 6.0 0.00 0.00 0.00 65 1013.0
20180721125515 81 81 1.0 5.0 0.00 0.00 0.00 64 1013.0
20180721125015 82 95 1.0 6.0 0.00 0.00 0.00 63 1013.1
20180721124519 82 64 1.0 6.0 0.00 0.00 0.00 62 1013.1
20180721124015 82 72 0.0 4.0 0.00 0.00 0.00 61 1012.7
20180721123516 82 31 0.0 4.0 0.00 0.00 0.00 60 1012.7
20180721123015 83 74 0.0 3.0 0.00 0.00 0.00 59 1012.4
20180721122515 83 51 1.0 5.0 0.00 0.00 0.00 59 1012.6
20180721122015 83 26 1.0 5.0 0.00 0.00 0.00 58 1012.7
20180721121516 83 83 1.0 5.0 0.00 0.00 0.00 58 1012.5
20180721121016 83 103 1.0 5.0 0.00 0.00 0.00 57 1012.4
20180721120516 84 51 1.0 6.0 0.00 0.00 0.00 57 1012.5
20180721120015 84 63 1.0 6.0 0.00 0.00 0.00 56 1012.4
20180721115515 84 132 1.0 6.0 0.00 0.00 0.00 55 1012.4
20180721115016 85 49 2.0 7.0 0.00 0.00 0.00 54 1012.4
20180721114515 86 152 1.0 7.0 0.00 0.00 0.00 54 1012.4
20180721114015 86 228 1.0 8.0 0.00 0.00 0.00 54 1012.1
20180721113516 86 45 1.0 8.0 0.00 0.00 0.00 54 1012.2
20180721113015 86 32 1.0 8.0 0.00 0.00 0.00 54 1012.2
20180721112515 87 349 1.0 8.0 0.00 0.00 0.00 54 1012.2
20180721112016 87 38 0.0 7.0 0.00 0.00 0.00 54 1012.1
20180721111515 87 24 1.0 7.0 0.00 0.00 0.00 53 1012.1
20180721111018 87 328 1.0 7.0 0.00 0.00 0.00 52 1011.9
20180721110516 88 43 0.0 7.0 0.00 0.00 0.00 50 1011.7
20180721110015 89 17 2.0 7.0 0.00 0.00 0.00 48 1011.7
20180721105516 90 335 1.0 7.0 0.00 0.00 0.00 44 1011.5
20180721105015 90 266 2.0 12.0 0.00 0.00 0.00 42 1011.5
20180721104521 91 238 2.0 12.0 0.00 0.00 0.00 41 1011.7
20180721104015 91 276 1.0 4.0 0.00 0.00 0.00 43 1011.7
20180721103515 91 258 1.0 3.0 0.00 0.00 0.00 43 1011.4
20180721103015 91 264 1.0 3.0 0.00 0.00 0.00 43 1011.3
20180721102517 91 330 0.0 3.0 0.00 0.00 0.00 41 1011.2
20180721102015 91 260 1.0 3.0 0.00 0.00 0.00 40 1011.0
20180721101515 92 258 0.0 3.0 0.00 0.00 0.00 38 1010.9
20180721101015 92 255 0.0 4.0 0.00 0.00 0.00 38 1010.9
20180721100516 91 258 1.0 4.0 0.00 0.00 0.00 38 1011.0
20180721100016 92 270 1.0 3.0 0.00 0.00 0.00 39 1011.0
20180721095515 92 9 0.0 2.0 0.00 0.00 0.00 38 1010.9
20180721095016 92 206 1.0 2.0 0.00 0.00 0.00 39 1010.9
20180721094516 92 201 0.0 1.0 0.00 0.00 0.00 39 1010.7
20180721094016 92 200 0.0 1.0 0.00 0.00 0.00 38 1010.6
20180721093515 92 200 0.0 1.0 0.00 0.00 0.00 39 1010.6
20180721093015 92 0.0 1.0 0.00 0.00 0.00 39 1010.5
20180721092517 92 201 0.0 1.0 0.00 0.00 0.00 40 1010.5
20180721092015 92 201 0.0 1.0 0.00 0.00 0.00 39 1010.3
20180721091515 92 200 0.0 1.0 0.00 0.00 0.00 39 1010.3
20180721091016 92 200 0.0 1.0 0.00 0.00 0.00 39 1010.3
20180721090515 92 189 0.0 1.0 0.00 0.00 0.00 40 1010.4
20180721090015 92 0.0 1.0 0.00 0.00 0.00 40 1010.4